[[{"header":{"parameterUnit":"m.s-1","parameterCategory":1,"la1":30.2991,"la2":30.254,"lo1":-89.0895,"lo2":-89.0444,"dy":0.0017,"dx":0.0017,"nx":28,"ny":28,"refTime":"2023-03-16T21:00:00:Z","depth":0,"parameterNumber":2,"parameterNumberName":"U-component_of_WINDS"},"data":[0,0,0,0,0,0,0,0,0,0,0,0,0,0,0,0,0,0,0,0,0,0,0,0,0,0,0,0,0,0,0,0,0,0,0,0,0,0,0,0,0,0,0,0,0,0,0,0,0,0,0,0,0,0,0,0,0,0,-1.9739,-1.9739,0,-1.9767,-1.9768,-1.9768,-1.9778,-1.9778,-1.9778,-1.9778,-1.9808,-1.9809,-1.981,0,0,0,0,0,0,0,0,0,0,0,0,0,-1.9694,-1.9695,-1.9738,-1.9739,-1.9739,-1.9767,-1.9768,-1.9768,-1.9778,-1.9778,-1.9778,-1.9778,-1.9808,-1.9809,-1.981,0,0,0,0,0,0,0,0,0,0,0,0,0,-1.9717,-1.9695,-1.9738,-1.9748,-1.9749,-1.9767,-1.9768,-1.9768,-1.9778,-1.9778,-1.9778,-1.9778,-1.9807,-1.9809,-1.981,-1.9821,0,0,-1.9814,-1.9815,0,0,0,0,0,0,0,0,-1.9716,-1.9719,-1.9746,-1.9747,-1.9748,-1.9769,-1.9763,-1.9786,-1.9778,-1.9767,-1.9778,-1.9778,-1.9795,-1.9797,-1.9803,-1.9823,-1.9824,-1.9814,-1.9815,-1.9815,-1.9816,0,0,0,0,0,0,0,-1.9714,-1.9718,-1.975,-1.9746,-1.9748,-1.9751,-1.9754,-1.9767,-1.9782,-1.9768,-1.9769,-1.9772,-1.9796,-1.9802,-1.9804,-1.9824,-1.9814,-1.9815,-1.9816,-1.9817,-1.9856,-1.9856,0,0,0,0,0,0,-1.9711,-1.9716,-1.9749,-1.9751,-1.9731,-1.9752,-1.9755,-1.9763,-1.9782,-1.9784,-1.9772,-1.9773,-1.98,-1.9802,-1.9805,-1.982,-1.9815,-1.9817,-1.9817,-1.9856,-1.9856,-1.9856,0,0,0,0,0,0,-1.971,-1.9714,-1.9748,-1.9734,-1.9738,-1.9753,-1.9761,-1.9763,-1.9769,-1.9785,-1.9787,-1.9776,-1.98,-1.9803,-1.9817,-1.9821,-1.9817,-1.9819,-1.9855,-1.9856,-1.9856,-1.985,0,0,0,0,0,0,-1.9708,-1.9713,-1.9717,-1.9734,-1.9739,-1.9759,-1.9761,-1.9764,-1.9772,-1.9772,-1.9789,-1.9791,-1.98,-1.9815,-1.9819,-1.9823,-1.982,-1.9855,-1.9856,-1.9856,-1.985,-1.985,-1.985,0,0,0,0,0,-1.9707,-1.9714,-1.9717,-1.9721,-1.9744,-1.9759,-1.9762,-1.9772,-1.9772,-1.9776,-1.9787,-1.9791,-1.9821,-1.9817,-1.9821,-1.9825,-1.9855,-1.9855,-1.9856,-1.985,-1.985,-1.985,0,0,0,0,0,0,-1.9697,-1.9716,-1.972,-1.9733,-1.9744,-1.9761,-1.9767,-1.9772,-1.9784,-1.9784,-1.9795,-1.9799,-1.9812,-1.9821,-1.9816,-1.9838,-1.9838,-1.9839,-1.9832,-1.9833,-1.9833,-1.983,-1.9821,0,0,0,0,0,-1.9697,-1.9707,-1.9723,-1.9733,-1.9739,-1.9752,-1.9759,-1.9765,-1.9778,-1.9783,-1.9794,-1.9806,-1.9818,-1.9826,-1.9838,-1.9852,-1.9856,-1.9857,-1.9857,-1.9857,-1.9858,-1.9867,-1.9868,-1.9858,-1.9858,-1.9858,0,0,-1.9696,-1.9707,-1.9713,-1.9732,-1.9741,-1.9752,-1.9756,-1.9767,-1.9775,-1.9784,-1.9798,-1.9807,-1.9822,-1.9836,-1.9843,-1.9843,-1.9862,-1.9858,-1.9858,-1.9859,-1.9868,-1.9869,-1.9869,-1.9858,-1.9858,-1.9858,0,0,-1.9699,-1.9709,-1.9718,-1.9728,-1.9743,-1.9752,-1.9754,-1.9771,-1.9777,-1.9791,-1.9799,-1.9809,-1.983,-1.984,-1.9848,-1.9857,-1.9862,-1.9861,-1.9862,-1.987,-1.9871,-1.9872,-1.9875,-1.9876,-1.9862,-1.9862,-1.9862,0,-1.9696,-1.9712,-1.9723,-1.9734,-1.9742,-1.9751,-1.9762,-1.9771,-1.9789,-1.9795,-1.9795,-1.9822,-1.9832,-1.9849,-1.9852,-1.9858,-1.9861,-1.9859,-1.987,-1.9871,-1.9872,-1.9875,-1.9877,-1.9862,-1.9862,-1.9862,-1.9862,0,-1.9708,-1.9719,-1.9725,-1.9743,-1.9752,-1.9762,-1.9775,-1.9783,-1.9789,-1.9798,-1.9814,-1.9827,-1.9842,-1.9847,-1.9853,-1.9865,-1.9865,-1.9868,-1.9868,-1.9872,-1.9876,-1.9877,-1.9861,-1.9862,-1.9862,-1.9862,0,0,-1.9705,-1.9729,-1.9731,-1.9739,-1.9757,-1.9766,-1.9778,-1.9793,-1.98,-1.9813,-1.9823,-1.9841,-1.9844,-1.9853,-1.9861,-1.9868,-1.9875,-1.987,-1.987,-1.987,-1.9891,-1.9888,-1.989,-1.9879,-1.9879,-1.9879,-1.9889,0,-1.971,-1.9731,-1.9741,-1.9758,-1.9769,-1.9779,-1.9789,-1.9801,-1.9811,-1.9822,-1.9833,-1.9845,-1.9848,-1.9854,-1.9861,-1.9873,-1.9879,-1.9872,-1.9889,-1.9889,-1.9884,-1.9891,-1.9889,-1.9897,-1.9891,-1.9891,-1.9891,0,-1.9719,-1.9732,-1.975,-1.9767,-1.9772,-1.9781,-1.9797,-1.9807,-1.9822,-1.9828,-1.9839,-1.9847,-1.986,-1.986,-1.9879,-1.9874,-1.9882,-1.9889,-1.989,-1.9891,-1.989,-1.9893,-1.99,-1.9902,-1.9894,-1.9893,-1.9893,0,-1.9716,-1.9737,-1.9751,-1.9758,-1.9779,-1.9785,-1.9794,-1.9808,-1.9817,-1.9831,-1.9837,-1.9852,-1.986,-1.9872,-1.9884,-1.9883,-1.9903,-1.9903,-1.9908,-1.9908,-1.9911,-1.9911,-1.992,-1.9917,-1.9917,-1.9917,-1.9917,0,-1.9721,-1.9731,-1.975,-1.9758,-1.977,-1.9783,-1.9795,-1.9805,-1.9818,-1.9829,-1.9838,-1.9849,-1.9864,-1.9876,-1.9886,-1.9901,-1.9904,-1.991,-1.9912,-1.9909,-1.9908,-1.9914,-1.9913,-1.9917,-1.9917,-1.9917,-1.9917,0,-1.9718,-1.9731,-1.9746,-1.9765,-1.977,-1.9778,-1.9795,-1.9804,-1.9814,-1.9828,-1.9832,-1.9848,-1.9863,-1.9877,-1.9896,-1.9903,-1.9918,-1.9921,-1.9913,-1.9914,-1.9919,-1.9918,-1.9931,-1.9934,-1.9929,-1.9929,-1.9929,0,-1.9721,-1.9729,-1.9749,-1.9757,-1.9765,-1.9778,-1.9787,-1.9801,-1.981,-1.9828,-1.9835,-1.9851,-1.9864,-1.9888,-1.9902,-1.9918,-1.9921,-1.9925,-1.9924,-1.992,-1.9921,-1.9921,-1.9922,-1.9925,-1.9925,-1.9925,-1.9925,0,-1.9723,-1.973,-1.9742,-1.9757,-1.9768,-1.9781,-1.9794,-1.98,-1.9816,-1.9826,-1.9842,-1.9852,-1.9873,-1.9889,-1.9906,-1.9917,-1.9923,-1.9925,-1.9927,-1.9923,-1.9918,-1.9921,-1.9913,-1.9924,-1.9924,-1.9924,-1.9924,-1.9924,-1.9723,-1.9731,-1.9747,-1.9761,-1.9772,-1.9785,-1.9794,-1.9806,-1.9819,-1.9837,-1.9844,-1.986,-1.9876,-1.9901,-1.9911,-1.9924,-1.9925,-1.9928,-1.9929,-1.9929,-1.9929,-1.9917,-1.9927,-1.9927,-1.9927,-1.9927,-1.9927,0,-1.9727,-1.9737,-1.975,-1.9768,-1.978,-1.9786,-1.9801,-1.981,-1.9824,-1.9838,-1.9851,-1.987,-1.9886,-1.9901,-1.9918,-1.9926,-1.993,-1.993,-1.9929,-1.9932,-1.9927,-1.9923,-1.9927,-1.9927,-1.9927,-1.9927,-1.9927,-1.9927,-1.973,-1.9744,-1.9752,-1.9772,-1.9783,-1.9799,-1.9807,-1.9819,-1.983,-1.985,-1.9863,-1.9874,-1.9889,-1.9907,-1.9922,-1.9927,-1.9932,-1.9932,-1.9937,-1.9932,-1.9932,-1.9932,-1.9928,-1.9933,-1.9933,-1.9941,-1.9941,-1.9941]},{"header":{"parameterUnit":"m.s-1","parameterCategory":1,"la1":30.2991,"la2":30.254,"lo1":-89.0895,"lo2":-89.0444,"dy":0.0017,"dx":0.0017,"nx":28,"ny":28,"refTime":"2023-03-16T21:00:00:Z","depth":0,"parameterNumber":3,"parameterNumberName":"V-component_of_WINDS"},"data":[0,0,0,0,0,0,0,0,0,0,0,0,0,0,0,0,0,0,0,0,0,0,0,0,0,0,0,0,0,0,0,0,0,0,0,0,0,0,0,0,0,0,0,0,0,0,0,0,0,0,0,0,0,0,0,0,0,0,5.6161,5.616,0,5.6134,5.6134,5.6134,5.6098,5.6098,5.6097,5.6097,5.6067,5.6067,5.6066,0,0,0,0,0,0,0,0,0,0,0,0,0,5.618,5.618,5.6161,5.616,5.616,5.6134,5.6134,5.6134,5.6098,5.6098,5.6097,5.6096,5.6067,5.6067,5.6066,0,0,0,0,0,0,0,0,0,0,0,0,0,5.6164,5.618,5.6161,5.614,5.6137,5.6134,5.6134,5.6133,5.6099,5.6098,5.6097,5.6096,5.6067,5.6067,5.6066,5.6081,0,0,5.6065,5.6065,0,0,0,0,0,0,0,0,5.6165,5.6163,5.6143,5.6141,5.6139,5.6119,5.613,5.6116,5.6099,5.6113,5.6097,5.6096,5.6085,5.6083,5.608,5.608,5.6079,5.6065,5.6065,5.6065,5.6065,0,0,0,0,0,0,0,5.6166,5.6164,5.615,5.6143,5.614,5.6131,5.6128,5.6127,5.6104,5.6112,5.6109,5.6107,5.6083,5.608,5.6079,5.6078,5.6065,5.6065,5.6065,5.6064,5.6091,5.6092,0,0,0,0,0,0,5.6171,5.6166,5.6151,5.6149,5.615,5.6131,5.6128,5.6126,5.6104,5.61,5.6108,5.6105,5.6081,5.6079,5.6077,5.6095,5.6065,5.6064,5.6064,5.609,5.6091,5.6092,0,0,0,0,0,0,5.6171,5.617,5.6152,5.6157,5.6154,5.6132,5.613,5.6126,5.6123,5.6101,5.6096,5.6109,5.608,5.6078,5.6081,5.6093,5.6064,5.6064,5.6089,5.6091,5.6092,5.6129,0,0,0,0,0,0,5.6172,5.617,5.6176,5.6157,5.6154,5.6157,5.6131,5.6126,5.6122,5.6119,5.6101,5.6097,5.608,5.6082,5.6081,5.6092,5.6064,5.6088,5.609,5.6092,5.6126,5.6131,5.6136,0,0,0,0,0,5.6173,5.6186,5.6176,5.6175,5.616,5.6157,5.6155,5.6136,5.6124,5.6129,5.6115,5.6097,5.6092,5.6083,5.6081,5.6092,5.6087,5.6089,5.6091,5.6124,5.613,5.6135,0,0,0,0,0,0,5.6205,5.6183,5.6172,5.618,5.6171,5.6151,5.6158,5.6143,5.6137,5.6134,5.611,5.6106,5.6112,5.6102,5.6092,5.6107,5.6087,5.6089,5.6113,5.6118,5.6123,5.6125,5.6063,0,0,0,0,0,5.6214,5.6214,5.6194,5.6203,5.6199,5.618,5.6177,5.6164,5.6153,5.6149,5.6135,5.6125,5.6121,5.6119,5.6114,5.6125,5.6121,5.6132,5.6137,5.6141,5.6143,5.6149,5.6154,5.6099,5.6099,5.6099,0,0,5.623,5.6218,5.6219,5.6209,5.6201,5.6201,5.6176,5.6177,5.6177,5.6148,5.6151,5.6141,5.6128,5.6136,5.6138,5.6128,5.6157,5.6143,5.6147,5.6146,5.6152,5.6157,5.6162,5.6101,5.6101,5.61,0,0,5.6261,5.6252,5.6259,5.6252,5.624,5.6227,5.6229,5.6212,5.6204,5.6207,5.6186,5.6186,5.6179,5.6172,5.6167,5.6197,5.6181,5.6196,5.622,5.6227,5.6231,5.6235,5.6247,5.6251,5.6198,5.6198,5.6198,0,5.6283,5.6283,5.6264,5.6267,5.6264,5.6239,5.6247,5.624,5.6227,5.6225,5.6214,5.6207,5.6196,5.6203,5.6211,5.6207,5.6209,5.6198,5.6232,5.6236,5.6239,5.625,5.6254,5.62,5.62,5.62,5.62,0,5.6312,5.6312,5.632,5.6309,5.6306,5.6312,5.6293,5.6293,5.628,5.6268,5.6272,5.6259,5.6252,5.6253,5.6239,5.6257,5.6252,5.6237,5.6216,5.6246,5.6257,5.626,5.6203,5.6203,5.6202,5.6202,0,0,5.6361,5.6342,5.6345,5.634,5.6326,5.6326,5.6331,5.6325,5.6326,5.6318,5.6322,5.6318,5.6305,5.63,5.6285,5.6291,5.6318,5.6275,5.6275,5.6285,5.6339,5.6351,5.6356,5.6307,5.6308,5.6308,5.634,0,5.639,5.6397,5.6381,5.6392,5.6393,5.6371,5.6375,5.6367,5.6356,5.6356,5.6344,5.6342,5.6324,5.6321,5.6326,5.6314,5.6328,5.6311,5.631,5.6311,5.6315,5.6361,5.6373,5.6403,5.6344,5.6344,5.6345,0,5.6424,5.642,5.6431,5.6419,5.6418,5.6422,5.6417,5.6416,5.6407,5.6399,5.6395,5.6379,5.6383,5.6364,5.6369,5.6358,5.6356,5.635,5.6351,5.635,5.633,5.6362,5.6412,5.6417,5.6351,5.635,5.635,0,5.646,5.6457,5.6464,5.6461,5.6446,5.645,5.6443,5.6433,5.6432,5.6427,5.6426,5.6421,5.6418,5.6415,5.6399,5.6386,5.6406,5.6385,5.64,5.6401,5.6405,5.6405,5.6457,5.6404,5.6404,5.6404,5.6404,0,5.6494,5.6502,5.6481,5.6485,5.6494,5.6475,5.6485,5.6476,5.6468,5.647,5.645,5.6453,5.6431,5.6431,5.6418,5.6425,5.6424,5.6418,5.6415,5.642,5.6421,5.6419,5.6417,5.6405,5.6405,5.6404,5.6404,0,5.6536,5.6521,5.6528,5.6514,5.6511,5.6518,5.6506,5.651,5.6499,5.6502,5.6502,5.6485,5.6484,5.6468,5.6463,5.6455,5.6468,5.646,5.6471,5.6469,5.6485,5.6484,5.6537,5.6544,5.6486,5.6487,5.6487,0,5.6559,5.6565,5.6552,5.6553,5.6548,5.6549,5.6548,5.6531,5.653,5.6521,5.6526,5.6525,5.6522,5.6523,5.651,5.6507,5.6499,5.6518,5.6498,5.6505,5.6501,5.6501,5.6502,5.6522,5.6523,5.6524,5.6524,0,5.6601,5.6594,5.6594,5.6592,5.6591,5.6588,5.6584,5.6585,5.6566,5.6566,5.6567,5.6565,5.6562,5.6561,5.6556,5.6549,5.6534,5.6531,5.6534,5.654,5.6547,5.6545,5.6483,5.6529,5.6529,5.6528,5.6528,5.6528,5.6635,5.664,5.6633,5.6633,5.6628,5.6625,5.6629,5.6619,5.6619,5.6616,5.6605,5.6608,5.6599,5.6592,5.6586,5.6588,5.6578,5.6583,5.6584,5.6586,5.659,5.6547,5.6587,5.6587,5.6586,5.6586,5.6586,0,5.6677,5.6672,5.6673,5.6668,5.6669,5.6656,5.665,5.6652,5.6655,5.6649,5.6648,5.6649,5.6648,5.6636,5.6634,5.6637,5.663,5.6637,5.6637,5.6636,5.6598,5.6595,5.6643,5.6643,5.6643,5.6643,5.6643,5.6643,5.67,5.6708,5.6701,5.6707,5.6702,5.6705,5.6703,5.67,5.6696,5.6698,5.6698,5.6691,5.6682,5.668,5.6679,5.6675,5.6676,5.6686,5.668,5.6644,5.6639,5.6633,5.6631,5.6686,5.6686,5.6718,5.6719,5.6719]}]]